[[{"header":{"parameterUnit":"m.s-1","parameterCategory":1,"la1":30.2991,"la2":30.254,"lo1":-89.0895,"lo2":-89.0444,"dy":0.0017,"dx":0.0017,"nx":28,"ny":28,"refTime":"2023-07-22T21:00:00:Z","depth":0,"parameterNumber":2,"parameterNumberName":"U-component_of_WINDS"},"data":[0,0,0,0,0,0,0,0,0,0,0,0,0,0,0,0,0,0,0,0,0,0,0,0,0,0,0,0,0,0,0,0,0,0,0,0,0,0,0,0,0,0,0,0,0,0,0,0,0,0,0,0,0,0,0,0,0,0,1.4906,1.4907,0,1.4979,1.498,1.4981,1.4973,1.4972,1.497,1.4969,1.5053,1.5057,1.506,0,0,0,0,0,0,0,0,0,0,0,0,0,1.4769,1.4772,1.4906,1.4907,1.4908,1.4979,1.498,1.4981,1.4973,1.4972,1.497,1.4969,1.5052,1.5056,1.506,0,0,0,0,0,0,0,0,0,0,0,0,0,1.4834,1.4772,1.4906,1.4912,1.4913,1.4979,1.498,1.4981,1.4973,1.4971,1.497,1.4968,1.5051,1.5056,1.5061,1.5127,0,0,1.5076,1.5078,0,0,0,0,0,0,0,0,1.4831,1.4839,1.491,1.4912,1.4913,1.4965,1.4963,1.5031,1.4974,1.4951,1.4969,1.4967,1.5026,1.5033,1.5051,1.5131,1.5135,1.5077,1.508,1.5082,1.5083,0,0,0,0,0,0,0,1.4826,1.4836,1.4935,1.4911,1.4913,1.4915,1.4922,1.4975,1.4998,1.4953,1.4952,1.4961,1.5027,1.5046,1.5053,1.5136,1.5076,1.5081,1.5084,1.5086,1.5278,1.528,0,0,0,0,0,0,1.4819,1.4832,1.4933,1.4937,1.4866,1.4918,1.4927,1.495,1.4997,1.5002,1.4962,1.496,1.5038,1.5047,1.5056,1.5138,1.5082,1.5086,1.5089,1.5276,1.5279,1.5281,0,0,0,0,0,0,1.4816,1.4828,1.493,1.4885,1.4898,1.4923,1.4949,1.4953,1.4972,1.5004,1.5009,1.4977,1.5037,1.5049,1.511,1.5141,1.5089,1.5093,1.5274,1.5277,1.528,1.5303,0,0,0,0,0,0,1.4812,1.4827,1.485,1.4885,1.49,1.498,1.4951,1.4955,1.498,1.4978,1.502,1.5025,1.5037,1.5102,1.5115,1.5147,1.5097,1.5271,1.5275,1.5279,1.53,1.5307,1.5313,0,0,0,0,0,1.4807,1.4855,1.4851,1.4863,1.4929,1.4981,1.499,1.5,1.4982,1.5007,1.5028,1.5024,1.5135,1.5108,1.5122,1.5157,1.5269,1.5274,1.5278,1.5297,1.5305,1.5313,0,0,0,0,0,0,1.4825,1.486,1.4856,1.4916,1.4945,1.498,1.5012,1.5009,1.5046,1.5043,1.5057,1.5067,1.5129,1.5149,1.5118,1.5225,1.52,1.5208,1.521,1.5218,1.5224,1.5219,1.5101,0,0,0,0,0,1.4836,1.4872,1.4902,1.4952,1.4967,1.4987,1.501,1.5015,1.5047,1.5061,1.5086,1.512,1.5164,1.5192,1.5233,1.5303,1.5313,1.5334,1.534,1.5345,1.5352,1.5393,1.5403,1.5296,1.5296,1.5296,0,0,1.4859,1.4883,1.4905,1.4957,1.498,1.5021,1.4998,1.5041,1.5073,1.5069,1.5127,1.5147,1.5187,1.5252,1.5283,1.5271,1.5384,1.5351,1.5355,1.5359,1.5399,1.5409,1.5418,1.53,1.5299,1.5298,0,0,1.4922,1.4942,1.4987,1.5011,1.5046,1.5059,1.507,1.5105,1.5117,1.5176,1.5174,1.5213,1.5287,1.5315,1.5339,1.5415,1.5413,1.5428,1.5463,1.5502,1.5511,1.5518,1.5547,1.5557,1.5435,1.5435,1.5435,0,1.4948,1.5005,1.5012,1.5056,1.508,1.5075,1.5123,1.5147,1.5195,1.5213,1.5199,1.5291,1.5318,1.5391,1.541,1.5429,1.5444,1.5424,1.5508,1.5516,1.5523,1.5551,1.5562,1.5437,1.5437,1.5436,1.5436,0,1.5036,1.5077,1.5109,1.5153,1.5181,1.5226,1.5243,1.5271,1.5274,1.529,1.5351,1.5382,1.5431,1.5448,1.5453,1.5524,1.5515,1.5505,1.548,1.5535,1.5562,1.5572,1.5439,1.5439,1.5438,1.5438,0,0,1.5113,1.5159,1.5171,1.5192,1.523,1.5264,1.5311,1.5355,1.538,1.5414,1.5456,1.5518,1.5509,1.5536,1.5544,1.5579,1.5639,1.5564,1.5565,1.5578,1.5722,1.573,1.5742,1.5638,1.564,1.5641,1.5719,0,1.5181,1.526,1.5268,1.5341,1.538,1.5377,1.5419,1.5449,1.5465,1.5504,1.5523,1.5567,1.555,1.5567,1.5601,1.5624,1.5668,1.5619,1.568,1.5682,1.5671,1.5756,1.5765,1.5837,1.5729,1.5731,1.5732,0,1.5271,1.5304,1.538,1.5415,1.5432,1.5468,1.5511,1.5546,1.5582,1.5592,1.5622,1.5626,1.5678,1.5651,1.5725,1.5691,1.5717,1.5732,1.5735,1.5743,1.5711,1.5767,1.586,1.5871,1.5748,1.5747,1.5746,0,1.5321,1.5386,1.544,1.5457,1.5499,1.5525,1.5544,1.5577,1.5604,1.5642,1.5661,1.5706,1.5731,1.5767,1.5784,1.5762,1.5858,1.5832,1.5871,1.587,1.5892,1.589,1.5991,1.5906,1.5906,1.5906,1.5906,0,1.5397,1.5444,1.5463,1.5496,1.555,1.556,1.5614,1.5633,1.5663,1.5703,1.5704,1.5742,1.5761,1.5803,1.5817,1.5878,1.5889,1.5901,1.5904,1.5901,1.59,1.5919,1.5915,1.5909,1.5908,1.5907,1.5907,0,1.5463,1.5477,1.5536,1.5569,1.5579,1.5618,1.5648,1.5683,1.5698,1.5749,1.5762,1.5788,1.5837,1.5857,1.5919,1.5929,1.5999,1.5998,1.5986,1.5987,1.6026,1.6022,1.6144,1.6161,1.6063,1.6064,1.6065,0,1.551,1.5546,1.5583,1.5608,1.5628,1.5668,1.5695,1.5708,1.5736,1.578,1.581,1.5859,1.5898,1.5978,1.6005,1.6053,1.6054,1.6093,1.6062,1.6058,1.6057,1.6055,1.606,1.61,1.6101,1.6101,1.6102,0,1.5595,1.56,1.5637,1.5677,1.5708,1.5741,1.5773,1.5795,1.5813,1.5846,1.5895,1.5925,1.5987,1.6037,1.6086,1.611,1.6111,1.6112,1.6124,1.6122,1.6114,1.612,1.6003,1.6109,1.6108,1.6108,1.6108,1.6107,1.5654,1.5686,1.5718,1.5759,1.5784,1.5815,1.5849,1.5868,1.5908,1.5957,1.5963,1.6017,1.6055,1.612,1.6146,1.619,1.6181,1.6197,1.6202,1.6206,1.6209,1.6105,1.6199,1.6199,1.6199,1.6199,1.6199,0,1.574,1.576,1.5798,1.5842,1.5876,1.5869,1.5905,1.5935,1.5981,1.6014,1.6053,1.6111,1.6159,1.6189,1.6239,1.6269,1.6271,1.6282,1.6281,1.6287,1.6214,1.62,1.628,1.628,1.628,1.628,1.628,1.628,1.5788,1.5843,1.5852,1.5921,1.5941,1.5991,1.6012,1.6042,1.6068,1.6132,1.6171,1.6189,1.6223,1.6275,1.632,1.6328,1.6347,1.6359,1.6367,1.63,1.6291,1.6283,1.627,1.6363,1.6363,1.6436,1.6437,1.6437]},{"header":{"parameterUnit":"m.s-1","parameterCategory":1,"la1":30.2991,"la2":30.254,"lo1":-89.0895,"lo2":-89.0444,"dy":0.0017,"dx":0.0017,"nx":28,"ny":28,"refTime":"2023-07-22T21:00:00:Z","depth":0,"parameterNumber":3,"parameterNumberName":"V-component_of_WINDS"},"data":[0,0,0,0,0,0,0,0,0,0,0,0,0,0,0,0,0,0,0,0,0,0,0,0,0,0,0,0,0,0,0,0,0,0,0,0,0,0,0,0,0,0,0,0,0,0,0,0,0,0,0,0,0,0,0,0,0,0,2.1677,2.1676,0,2.1599,2.1598,2.1597,2.1561,2.1561,2.1561,2.1561,2.1474,2.1472,2.1469,0,0,0,0,0,0,0,0,0,0,0,0,0,2.1787,2.1786,2.1677,2.1676,2.1675,2.1599,2.1598,2.1597,2.1561,2.1561,2.1561,2.1561,2.1475,2.1472,2.1469,0,0,0,0,0,0,0,0,0,0,0,0,0,2.1727,2.1785,2.1677,2.1648,2.1645,2.1599,2.1598,2.1596,2.1561,2.1561,2.1561,2.1561,2.1476,2.1472,2.1469,2.1443,0,0,2.1458,2.1456,0,0,0,0,0,0,0,0,2.1731,2.1723,2.1653,2.165,2.1646,2.159,2.1605,2.1545,2.1561,2.1593,2.1561,2.1561,2.1512,2.1505,2.149,2.1439,2.1436,2.1457,2.1455,2.1453,2.1452,0,0,0,0,0,0,0,2.1735,2.1726,2.1646,2.1652,2.1648,2.1636,2.1628,2.1593,2.1552,2.159,2.1587,2.1579,2.151,2.1494,2.1488,2.1434,2.1457,2.1454,2.1452,2.145,2.1357,2.1356,0,0,0,0,0,0,2.1745,2.173,2.1648,2.1643,2.169,2.1634,2.1625,2.1608,2.1553,2.1544,2.1579,2.1577,2.15,2.1492,2.1485,2.145,2.1454,2.145,2.1448,2.1357,2.1357,2.1356,0,0,0,0,0,0,2.1747,2.1738,2.1651,2.1686,2.1674,2.1632,2.1613,2.1606,2.159,2.1544,2.1536,2.157,2.15,2.149,2.1454,2.1447,2.1448,2.1445,2.1357,2.1357,2.1357,2.1383,0,0,0,0,0,0,2.1751,2.1739,2.1731,2.1686,2.1672,2.1625,2.1613,2.1604,2.1585,2.1582,2.1534,2.1526,2.1499,2.146,2.145,2.1442,2.1442,2.1358,2.1357,2.1357,2.1382,2.1383,2.1384,0,0,0,0,0,2.1755,2.174,2.1731,2.1721,2.1662,2.1624,2.1616,2.1587,2.1584,2.1574,2.1545,2.1528,2.145,2.1456,2.1446,2.1436,2.1358,2.1357,2.1357,2.1382,2.1383,2.1384,0,0,0,0,0,0,2.1783,2.1734,2.1723,2.1694,2.1664,2.1618,2.1605,2.159,2.1558,2.1557,2.152,2.1509,2.1477,2.1452,2.1461,2.1408,2.1402,2.1399,2.1425,2.1426,2.1426,2.1432,2.1439,0,0,0,0,0,2.1786,2.1763,2.172,2.1698,2.1684,2.1647,2.163,2.161,2.1577,2.1563,2.1531,2.1497,2.1464,2.1444,2.1411,2.1379,2.1366,2.1367,2.1368,2.1368,2.1366,2.1345,2.1344,2.1354,2.1354,2.1354,0,0,2.1792,2.1762,2.1749,2.1703,2.1677,2.1651,2.1637,2.1609,2.1589,2.1558,2.1523,2.1498,2.1457,2.1423,2.1406,2.1402,2.1361,2.1368,2.1369,2.1366,2.1344,2.1344,2.1343,2.1354,2.1354,2.1354,0,0,2.1789,2.1765,2.1744,2.1719,2.1681,2.1657,2.1652,2.1608,2.1591,2.1556,2.1532,2.1505,2.1451,2.1423,2.1401,2.1386,2.1368,2.1377,2.1381,2.1361,2.136,2.1359,2.1353,2.1351,2.1374,2.1375,2.1375,0,2.18,2.1762,2.1734,2.1709,2.1688,2.1661,2.1638,2.1614,2.1567,2.1552,2.1549,2.1479,2.145,2.1408,2.1404,2.1388,2.1379,2.1382,2.1363,2.1362,2.136,2.1354,2.1351,2.1376,2.1376,2.1375,2.1375,0,2.1777,2.1751,2.1738,2.1695,2.1673,2.1649,2.1615,2.1595,2.1577,2.1553,2.1515,2.148,2.1439,2.1428,2.1409,2.1382,2.1381,2.1371,2.1364,2.1361,2.1354,2.1351,2.1377,2.1377,2.1377,2.1376,0,0,2.179,2.1732,2.1728,2.1708,2.1664,2.1641,2.1614,2.1577,2.156,2.1528,2.1503,2.1457,2.1448,2.1423,2.1401,2.1384,2.1373,2.1375,2.1374,2.1375,2.1339,2.1346,2.1344,2.1361,2.136,2.136,2.1342,0,2.178,2.1734,2.1708,2.1671,2.1645,2.1619,2.1595,2.1564,2.154,2.1512,2.1484,2.1452,2.1443,2.1427,2.1409,2.1378,2.1365,2.1379,2.1335,2.1334,2.1346,2.134,2.1348,2.1333,2.1339,2.1338,2.1338,0,2.1763,2.1733,2.1695,2.1653,2.1641,2.1621,2.1584,2.1558,2.1521,2.1505,2.1478,2.1456,2.1423,2.142,2.1374,2.1384,2.1364,2.1346,2.1344,2.1338,2.1335,2.1333,2.1328,2.1325,2.1334,2.1334,2.1334,0,2.1775,2.1725,2.1696,2.1679,2.163,2.1616,2.1594,2.1558,2.1536,2.1503,2.1488,2.1451,2.143,2.14,2.1367,2.1368,2.1323,2.1317,2.1307,2.1307,2.1298,2.1299,2.1288,2.1287,2.1287,2.1287,2.1287,0,2.1766,2.1744,2.17,2.1682,2.1655,2.1624,2.1597,2.1572,2.154,2.1514,2.1488,2.1464,2.1423,2.1393,2.1367,2.1332,2.1323,2.1306,2.13,2.1308,2.131,2.1294,2.1294,2.1286,2.1286,2.1286,2.1287,0,2.1775,2.1746,2.1712,2.1668,2.1656,2.1638,2.1599,2.1579,2.1553,2.1521,2.1512,2.147,2.1434,2.1399,2.1349,2.1331,2.1295,2.1287,2.1309,2.1305,2.1295,2.1296,2.1273,2.1268,2.1272,2.1272,2.1272,0,2.1772,2.1754,2.1709,2.1691,2.167,2.1642,2.162,2.1588,2.1566,2.1522,2.1507,2.1469,2.1436,2.1378,2.1342,2.1303,2.1293,2.1288,2.1287,2.1296,2.1291,2.1293,2.129,2.1288,2.1288,2.1288,2.1289,0,2.1768,2.1754,2.1726,2.1692,2.1667,2.1639,2.1608,2.1594,2.1556,2.1532,2.1496,2.1471,2.1421,2.1382,2.1339,2.1313,2.1293,2.1289,2.1284,2.1293,2.1306,2.1297,2.131,2.129,2.129,2.1289,2.1289,2.1289,2.1769,2.1752,2.1717,2.1686,2.166,2.1633,2.1611,2.1584,2.1554,2.1512,2.1494,2.1456,2.1417,2.1358,2.1332,2.1301,2.1296,2.1289,2.1287,2.1286,2.1287,2.1312,2.1293,2.1293,2.1292,2.1292,2.1292,0,2.1763,2.174,2.1712,2.1671,2.1646,2.1632,2.1598,2.1576,2.1545,2.1512,2.1481,2.1438,2.14,2.1361,2.132,2.1302,2.1292,2.1292,2.1293,2.1287,2.1294,2.1302,2.1301,2.1301,2.1301,2.1301,2.1301,2.1301,2.1757,2.1727,2.1709,2.1664,2.164,2.1605,2.1586,2.1559,2.1533,2.1486,2.1456,2.1432,2.1395,2.1352,2.1315,2.1304,2.129,2.1293,2.1279,2.1287,2.1287,2.1286,2.1293,2.129,2.129,2.1274,2.1274,2.1274]}]]